Weather History for Warrensburg, MO

Change the Weather History Date:

Friday, June 28, 2013

  Actual Average (KSZL) Record (KSZL)
Temperature  
Mean Temperature 75 °F -  
Max Temperature 86 °F 84 °F 103 °F (2012)
Min Temperature 64 °F 65 °F 59 °F (2006)
Cooling Degree Days 10    
Growing Degree Days 25 (Base 50)    
Moisture  
Dew Point 62 °F    
Average Humidity 66    
Maximum Humidity 100    
Minimum Humidity 35    
Precipitation  
Precipitation 0.02 in - - ()
Sea Level Pressure  
Sea Level Pressure 29.89 in    
Wind  
Wind Speed 5 mph (WNW)    
Max Wind Speed 14 mph    
Max Gust Speed 21 mph    
Visibility 10 miles    
Events Rain , Thunderstorm    
Averages and records for this station are not official NWS values.
T = Trace of Precipitation, MM = Missing Value Source: NWS Daily Summary

Daily Weather History Graph

Daily Weather History Graph

Search for Another Location

Airport:

Trip Planner

Search our weather history database for the weather conditions in past years. The results will help you decide how hot, cold, wet, or windy it might be!

Date:

Astronomy

Jun. 28, 2013 Rise Set
Actual Time 5:52 AM CDT 8:44 PM CDT
Civil Twilight 5:20 AM CDT 9:16 PM CDT
Nautical Twilight 4:40 AM CDT 9:56 PM CDT
Astronomical Twilight 3:54 AM CDT 10:42 PM CDT
Moon No Moon Rise 11:57 AM CDT (6/28)
Length of Visible Light 15h 55m
Length of Day
14h 51m
Waning Gibbous, 66% of the Moon is Illuminated
Jun 28
Waning Gibbous
Jun 29
Last Quarter
Jul 8
New
Jul 15
First Quarter
Jul 22
Full

Hourly Weather History & Observations

Time (CDT) Temp. Heat Index Dew Point Humidity Pressure Visibility Wind Dir Wind Speed Gust Speed Precip Events Conditions
12:15 AM 68.0 °F - 64.4 °F 88% 29.99 in 1.2 mi North 5.8 mph - N/A Rain , Thunderstorm Thunderstorms and Rain
12:35 AM 68.0 °F - 64.4 °F 88% 29.94 in 10.0 mi ENE 8.1 mph - N/A Rain , Thunderstorm Light Thunderstorms and Rain
12:55 AM 68.0 °F - 66.2 °F 94% 29.94 in 10.0 mi ESE 4.6 mph - N/A Thunderstorm Thunderstorm
1:15 AM 68.0 °F - 66.2 °F 94% 29.93 in 10.0 mi SSW 3.5 mph - N/A   Mostly Cloudy
1:35 AM 68.0 °F - 66.2 °F 94% 29.92 in 10.0 mi Calm Calm - N/A Thunderstorm Overcast
1:55 AM 68.0 °F - 66.2 °F 94% 29.93 in 10.0 mi Calm Calm - N/A   Mostly Cloudy
2:15 AM 68.0 °F - 66.2 °F 94% 29.92 in 10.0 mi Calm Calm - N/A   Mostly Cloudy
2:35 AM 68.0 °F - 64.4 °F 88% 29.90 in 10.0 mi Calm Calm - 0.01 in   Clear
2:55 AM 66.2 °F - 64.4 °F 94% 29.90 in 10.0 mi Calm Calm - 0.01 in   Clear
3:15 AM 66.2 °F - 64.4 °F 94% 29.90 in 10.0 mi Calm Calm - N/A   Clear
3:35 AM 66.2 °F - 64.4 °F 94% 29.89 in 7.0 mi Calm Calm - N/A   Clear
3:55 AM 66.2 °F - 64.4 °F 94% 29.89 in 1.0 mi Calm Calm - N/A   Mist
4:15 AM 66.2 °F - 64.4 °F 94% 29.90 in 10.0 mi West 3.5 mph - N/A   Clear
4:35 AM 66.2 °F - 64.4 °F 94% 29.90 in 10.0 mi Calm Calm - N/A   Clear
4:55 AM 66.2 °F - 64.4 °F 94% 29.92 in 10.0 mi Calm Calm - N/A   Clear
5:15 AM 64.4 °F - 64.4 °F 100% 29.93 in 10.0 mi SSW 3.5 mph - N/A   Clear
5:35 AM 66.2 °F - 64.4 °F 94% 29.92 in 10.0 mi SSW 3.5 mph - N/A   Clear
5:55 AM 64.4 °F - 64.4 °F 100% 29.92 in 10.0 mi Calm Calm - N/A   Clear
6:15 AM 64.4 °F - 64.4 °F 100% 29.92 in 10.0 mi WNW 3.5 mph - N/A   Clear
6:35 AM 66.2 °F - 64.4 °F 94% 29.93 in 10.0 mi Calm Calm - N/A   Clear
6:55 AM 66.2 °F - 64.4 °F 94% 29.92 in 10.0 mi Calm Calm - N/A   Clear
7:55 AM 69.8 °F - 68.0 °F 94% 29.93 in 10.0 mi Calm Calm - N/A   Clear
8:15 AM 69.8 °F - 69.8 °F 100% 29.93 in 10.0 mi Calm Calm - N/A   Clear
8:35 AM 71.6 °F - 69.8 °F 94% 29.93 in 10.0 mi West 3.5 mph - N/A   Clear
8:55 AM 75.2 °F - 69.8 °F 83% 29.93 in 10.0 mi WSW 4.6 mph - 0.01 in   Scattered Clouds
9:15 AM 77.0 °F - 68.0 °F 74% 29.92 in 10.0 mi WNW 4.6 mph - N/A   Clear
9:35 AM 78.8 °F - 68.0 °F 69% 29.92 in 10.0 mi WNW 6.9 mph - N/A   Clear
9:55 AM 78.8 °F - 66.2 °F 65% 29.92 in 10.0 mi WNW 6.9 mph 16.1 mph N/A   Scattered Clouds
10:15 AM 78.8 °F - 68.0 °F 69% 29.93 in 10.0 mi WNW 8.1 mph - N/A   Mostly Cloudy
10:35 AM 78.8 °F - 68.0 °F 69% 29.91 in 10.0 mi WNW 8.1 mph - N/A   Mostly Cloudy
10:55 AM 78.8 °F - 68.0 °F 69% 29.92 in 10.0 mi WNW 5.8 mph - N/A   Mostly Cloudy
11:15 AM 80.6 °F 82.7 °F 66.2 °F 61% 29.92 in 10.0 mi WNW 8.1 mph - N/A   Mostly Cloudy
11:35 AM 80.6 °F 82.7 °F 66.2 °F 61% 29.92 in 10.0 mi WNW 6.9 mph - N/A   Scattered Clouds
11:55 AM 82.4 °F 83.4 °F 62.6 °F 51% 29.92 in 10.0 mi WNW 8.1 mph - N/A   Clear
12:15 PM 82.4 °F 83.4 °F 62.6 °F 51% 29.92 in 10.0 mi NW 10.4 mph - N/A   Clear
12:35 PM 84.2 °F 85.6 °F 64.4 °F 51% 29.91 in 10.0 mi WNW 11.5 mph - N/A   Clear
12:55 PM 84.2 °F 85.0 °F 62.6 °F 48% 29.91 in 10.0 mi WNW 12.7 mph - N/A   Clear
1:15 PM 84.2 °F 85.0 °F 62.6 °F 48% 29.90 in 10.0 mi WNW 12.7 mph 18.4 mph N/A   Clear
1:35 PM 84.2 °F 84.4 °F 60.8 °F 45% 29.90 in 10.0 mi NW 12.7 mph 19.6 mph N/A   Scattered Clouds
1:55 PM 84.2 °F 84.4 °F 60.8 °F 45% 29.90 in 10.0 mi NW 10.4 mph - N/A   Clear
2:15 PM 86.0 °F 86.1 °F 60.8 °F 43% 29.89 in 10.0 mi NW 13.8 mph 17.3 mph N/A   Clear
2:35 PM 84.2 °F 83.8 °F 59.0 °F 42% 29.89 in 10.0 mi NW 11.5 mph 17.3 mph N/A   Clear
2:55 PM 84.2 °F 83.8 °F 59.0 °F 42% 29.89 in 10.0 mi NW 13.8 mph 18.4 mph N/A   Scattered Clouds
3:15 PM 86.0 °F 84.9 °F 57.2 °F 37% 29.88 in 10.0 mi NW 12.7 mph 20.7 mph N/A   Clear
3:35 PM 86.0 °F 84.5 °F 55.4 °F 35% 29.88 in 10.0 mi NW 11.5 mph 20.7 mph N/A   Clear
3:55 PM 86.0 °F 84.9 °F 57.2 °F 37% 29.88 in 10.0 mi NW 9.2 mph - N/A   Clear
4:15 PM 86.0 °F 84.5 °F 55.4 °F 35% 29.88 in 10.0 mi NW 11.5 mph 16.1 mph N/A   Clear
4:35 PM 86.0 °F 84.9 °F 57.2 °F 37% 29.87 in 10.0 mi WNW 11.5 mph 19.6 mph N/A   Clear
4:55 PM 84.2 °F 83.0 °F 55.4 °F 37% 29.87 in 10.0 mi NW 10.4 mph 19.6 mph N/A   Clear
5:15 PM 84.2 °F 82.8 °F 53.6 °F 35% 29.87 in 10.0 mi NW 11.5 mph 17.3 mph N/A   Clear
5:55 PM 84.2 °F 83.0 °F 55.4 °F 37% 29.86 in 10.0 mi NW 11.5 mph 17.3 mph N/A   Scattered Clouds
6:15 PM 82.4 °F 81.4 °F 53.6 °F 37% 29.86 in 10.0 mi NW 13.8 mph 20.7 mph N/A   Scattered Clouds
6:35 PM 82.4 °F 81.4 °F 53.6 °F 37% 29.85 in 10.0 mi NW 13.8 mph 20.7 mph N/A   Scattered Clouds
6:55 PM 82.4 °F 81.4 °F 53.6 °F 37% 29.85 in 10.0 mi NW 10.4 mph - N/A   Clear
7:15 PM 80.6 °F 80.5 °F 55.4 °F 42% 29.85 in 10.0 mi NW 8.1 mph - N/A   Clear
7:35 PM 80.6 °F 80.8 °F 57.2 °F 45% 29.85 in 10.0 mi NW 3.5 mph - N/A   Clear
7:55 PM 78.8 °F - 59.0 °F 51% 29.85 in 10.0 mi WNW 3.5 mph - N/A   Clear
8:15 PM 78.8 °F - 57.2 °F 47% 29.85 in 10.0 mi Calm Calm - N/A   Clear
8:35 PM 77.0 °F - 59.0 °F 54% 29.85 in 10.0 mi Calm Calm - N/A   Clear
8:55 PM 75.2 °F - 57.2 °F 53% 29.85 in 10.0 mi Calm Calm - N/A   Clear
9:15 PM 73.4 °F - 57.2 °F 57% 29.85 in 10.0 mi Calm Calm - N/A   Clear
9:35 PM 73.4 °F - 55.4 °F 53% 29.85 in 10.0 mi Calm Calm - N/A   Clear
9:55 PM 71.6 °F - 55.4 °F 57% 29.85 in 10.0 mi Calm Calm - N/A   Clear
10:15 PM 71.6 °F - 55.4 °F 57% 29.85 in 10.0 mi Calm Calm - N/A   Clear
10:35 PM 71.6 °F - 57.2 °F 60% 29.85 in 10.0 mi Calm Calm - N/A   Clear
10:55 PM 69.8 °F - 57.2 °F 64% 29.85 in 10.0 mi Calm Calm - N/A   Clear
11:15 PM 69.8 °F - 57.2 °F 64% 29.85 in 10.0 mi Calm Calm - N/A   Clear
11:35 PM 69.8 °F - 57.2 °F 64% 29.85 in 10.0 mi Calm Calm - N/A   Clear
11:55 PM 69.8 °F - 57.2 °F 64% 29.84 in 10.0 mi Calm Calm - N/A   Clear